Home > Weather > Swakopmund > Past weeks

Flag for Namibia Past Weather in Swakopmund, Namibia — Yesterday and Last 2 Weeks

Now
52 °F

Cool.


Feels Like: 49 °F
Forecast: 53 / 62 °F
Wind: 8 mph from Northeast

Location: Walvis Bay

Current Time: Jul 28, 2016 at 11:25:09 PM

Latest Report: Jul 28, 2016 at 10:00 PM


Visibility: N/A

Pressure: 30.09 "Hg

Humidity: 88%

Dew Point: 48 °F

Location of SwakopmundLocation

Past Weather in Swakopmund — Graph

°F

Swakopmund Temperature Yesterday

Maximum temperature yesterday: 70 °F (at 1:00 PM)
Minimum temperature yesterday: 36 °F (at 6:00 AM)
Average temperature yesterday: 52 °F

High & Low Weather Summary for the Past Weeks

 TemperatureHumidityPressure
High91 °F (Jul 14, 12:00 PM)100% (Jul 21, 7:00 AM)30.18 "Hg (Jul 21, 7:00 AM)
Low36 °F (Jul 26, 7:00 AM)11% (Jul 19, 10:00 AM)29.98 "Hg (Jul 14, 2:00 PM)
Average60 °F55%30.08 "Hg
* Reported Jul 14 5:00 AM — Jul 28 10:00 PM, Swakopmund, Weather by CustomWeather, © 2016

Note: Actual official high and low records may vary slightly from our data, if they occured in-between our weather recording intervals... More about our weather records

Advertising

Swakopmund Weather History for the Previous 24 Hours

Scroll right to see more
 ConditionsComfort  
Time TempWeatherWind HumidityBarometerVisibility
10:00 PM
Thu, Jul 28
52 °FCool.8 mph88%30.09 "HgN/A
9:00 PM52 °FCool.6 mph88%30.09 "HgN/A
8:00 PM52 °FCool.5 mph88%30.09 "HgN/A
7:00 PM54 °FCool.7 mph82%30.07 "HgN/A
6:00 PM57 °FCool.5 mph72%30.04 "HgN/A
5:00 PM63 °FMild.8 mph45%30.01 "HgN/A
4:00 PM64 °FSunny.7 mph30%30.01 "Hg10 mi
3:00 PM64 °FSunny.7 mph37%30.01 "Hg10 mi
2:00 PM64 °FSunny.6 mph34%30.01 "Hg10 mi
1:00 PM63 °FSunny.7 mph39%30.04 "Hg10 mi
12:00 PM63 °FMild.9 mph34%30.04 "HgN/A
11:00 AM61 °FSunny.6 mph29%30.07 "Hg10 mi
10:00 AM57 °FSunny.5 mph27%30.07 "Hg10 mi
9:00 AM52 °FSunny.2 mph28%30.07 "Hg10 mi
8:00 AM48 °FSunny.1 mph32%30.07 "Hg10 mi
7:00 AM41 °FQuite cool.7 mph36%30.04 "HgN/A
6:00 AM39 °FSunny.7 mph42%30.04 "Hg10 mi
5:00 AM39 °FClear.3 mph45%30.04 "Hg10 mi
Weather by CustomWeather, © 2016

See weather overviewHow to use our weather pages